Location: Domléger
(50.1596°N, 2.0855°E)
Time: 15:57:57
(UTC+00:00)

Cosmos 990 Rocket - Pass Details

Date: 13 December 2025
Orbit: 743 x 762 km, 74.0° (Epoch: 10 April)

Event Time Altitude Azimuth Distance (km) Brightness Sun altitude
Rises 17:28:36 0° 205° (SSW) 3,173 7.9 -14.9°
Reaches altitude 10° 17:30:57 10° 206° (SSW) 2,255 7.1 -15.3°
Maximum altitude 17:36:04 81° 293° (WNW) 763 4.0 -16.1°
Enters shadow 17:40:42 13° 22° (NNE) 2,073 5.9 -16.8°
